N5JLR-2 Weather Reports


Display with metric or nautical units.
time (UTC)temp
F
wind
direction
speed
MPH
gust
MPH
rain 1hr
in
rain 24hr
in
rain mn
in
humidity
%
barometer
mb
20260510174530 85 90 7.0 14.0 0.00 0.00 0.00 83 1012.5
20260510173035 84 104 7.0 16.0 0.00 0.00 0.00 84 1012.6
20260510171535 84 136 8.0 14.0 0.00 0.00 0.00 84 1012.6
20260510170027 84 75 7.0 14.0 0.00 0.00 0.00 84 1012.5
20260510164528 85 65 6.0 15.0 0.00 0.00 0.00 84 1012.3
20260510163028 84 74 7.0 14.0 0.00 0.00 0.00 86 1012.0
20260510161527 83 108 5.0 11.0 0.00 0.00 0.00 87 1012.1
20260510160030 83 98 6.0 12.0 0.00 0.00 0.00 87 1012.2
20260510154529 83 167 4.0 12.0 0.00 0.00 0.00 87 1012.0
20260510153038 83 178 5.0 12.0 0.00 0.00 0.00 87 1011.9
20260510151533 83 107 4.0 10.0 0.00 0.00 0.00 88 1011.9
20260510150030 82 78 4.0 10.0 0.00 0.00 0.00 90 1011.8
20260510144528 81 105 4.0 10.0 0.00 0.00 0.00 92 1012.0
20260510143030 81 113 4.0 10.0 0.00 0.00 0.00 92 1011.9
20260510141532 80 73 4.0 13.0 0.00 0.00 0.00 94 1011.9
20260510140028 79 87 4.0 8.0 0.00 0.00 0.00 96 1011.9
20260510134530 78 115 3.0 9.0 0.00 0.00 0.00 96 1012.1
20260510133027 78 65 4.0 9.0 0.00 0.00 0.00 97 1011.9
20260510131528 78 84 2.0 7.0 0.00 0.00 0.00 97 1011.9
20260510130041 77 65 1.0 4.0 0.00 0.00 0.00 97 1011.8
20260510124531 77 0 1.0 4.0 0.00 0.00 0.00 97 1011.6
20260510123028 76 53 0.0 3.0 0.00 0.00 0.00 97 1011.3
20260510121532 76 0 0.0 3.0 0.00 0.00 0.00 97 1011.1
20260510120032 76 0 1.0 5.0 0.00 0.00 0.00 97 1010.9
20260510114528 76 39 1.0 4.0 0.00 0.00 0.00 97 1010.5
20260510113029 75 30 1.0 5.0 0.00 0.00 0.00 97 1010.5
20260510111528 75 0 0.0 3.0 0.00 0.00 0.00 97 1010.2
20260510110038 75 0 0.0 0.0 0.00 0.00 0.00 97 1010.1
20260510104530 75 0 0.0 0.0 0.00 0.00 0.00 97 1009.9
20260510103029 75 0 0.0 3.0 0.00 0.00 0.00 97 1009.7
20260510101533 75 35 1.0 4.0 0.00 0.00 0.00 96 1009.7
20260510100031 75 19 1.0 3.0 0.00 0.00 0.00 96 1009.9
20260510094528 75 0 2.0 5.0 0.00 0.00 0.00 96 1010.0
20260510093032 75 0 0.0 3.0 0.00 0.00 0.00 96 1009.9
20260510091536 75 0 0.0 2.0 0.00 0.00 0.00 96 1009.5
20260510090030 75 0 0.0 1.0 0.00 0.00 0.00 96 1009.9
20260510084534 75 0 0.0 0.0 0.00 0.00 0.00 96 1010.0
20260510083027 75 0 0.0 2.0 0.00 0.00 0.00 96 1010.1
20260510081534 75 0 0.0 3.0 0.00 0.00 0.00 95 1010.0
20260510080027 75 0 1.0 2.0 0.00 0.00 0.00 95 1010.3
20260510074530 75 0 0.0 1.0 0.00 0.00 0.00 95 1010.5
20260510073032 75 0 0.0 0.0 0.00 0.00 0.00 95 1010.8
20260510071530 75 0 0.0 1.0 0.00 0.00 0.00 95 1011.0
20260510070032 76 121 0.0 2.0 0.00 0.00 0.00 95 1010.9
20260510064534 76 90 0.0 2.0 0.00 0.00 0.00 94 1011.1
20260510063028 76 0 0.0 2.0 0.00 0.00 0.00 94 1011.0
20260510061530 76 0 0.0 3.0 0.00 0.00 0.00 94 1010.9
20260510060032 76 93 1.0 4.0 0.00 0.00 0.00 95 1010.9
20260510054531 76 0 0.0 6.0 0.00 0.00 0.00 95 1011.1
20260510053029 76 0 2.0 7.0 0.00 0.00 0.00 95 1011.3
20260510051530 76 136 4.0 9.0 0.00 0.00 0.00 95 1011.4
20260510050027 76 131 2.0 6.0 0.00 0.00 0.00 95 1011.1
20260510044532 76 0 2.0 6.0 0.00 0.00 0.00 95 1011.2
20260510043031 76 92 1.0 6.0 0.00 0.00 0.00 95 1011.4
20260510041528 76 0 0.0 6.0 0.00 0.00 0.00 94 1011.6
20260510040030 76 0 1.0 4.0 0.00 0.00 0.00 94 1011.2
20260510034530 76 89 1.0 4.0 0.00 0.00 0.00 94 1011.2
20260510033028 77 0 1.0 4.0 0.00 0.00 0.00 94 1011.0
20260510031528 77 44 1.0 4.0 0.00 0.00 0.00 93 1010.4
20260510030028 77 53 2.0 5.0 0.00 0.00 0.00 93 1010.3
20260510024528 77 80 1.0 6.0 0.00 0.00 0.00 92 1010.1
20260510023031 78 35 2.0 5.0 0.00 0.00 0.00 92 1010.1
20260510021531 78 86 2.0 8.0 0.00 0.00 0.00 91 1009.9
20260510020030 78 51 3.0 7.0 0.00 0.00 0.00 90 1009.5
20260510014530 79 45 2.0 10.0 0.00 0.00 0.00 90 1009.4
20260510013029 79 22 5.0 12.0 0.00 0.00 0.00 90 1009.2
20260510011530 79 45 4.0 11.0 0.00 0.00 0.00 89 1009.3
20260510010029 79 67 2.0 10.0 0.00 0.00 0.00 88 1009.3
20260510004530 79 73 5.0 12.0 0.00 0.00 0.00 87 1009.3
20260510003028 80 44 4.0 11.0 0.00 0.00 0.00 87 1009.1
20260510001530 80 21 4.0 11.0 0.00 0.00 0.00 86 1009.2
20260510000035 80 70 7.0 14.0 0.00 0.00 0.00 85 1009.0
20260509234540 81 62 5.0 10.0 0.00 0.00 0.00 85 1009.0
20260509233030 81 53 7.0 13.0 0.00 0.00 0.00 84 1008.6
20260509231529 82 64 7.0 15.0 0.00 0.00 0.00 83 1008.6
20260509230028 82 10 7.0 15.0 0.00 0.00 0.00 82 1008.5
20260509224544 82 65 5.0 13.0 0.00 0.00 0.00 83 1008.5
20260509223030 82 39 7.0 16.0 0.00 0.00 0.00 82 1008.6
20260509221532 83 50 9.0 15.0 0.00 0.00 0.00 80 1008.5
20260509220028 83 61 6.0 14.0 0.00 0.00 0.00 80 1008.6
20260509214530 83 103 7.0 15.0 0.00 0.00 0.00 80 1008.5
20260509213028 83 80 9.0 17.0 0.00 0.00 0.00 80 1008.6
20260509211527 83 42 6.0 16.0 0.00 0.00 0.00 78 1009.0
20260509210028 85 9 6.0 16.0 0.00 0.00 0.00 75 1009.1
20260509204528 86 44 5.0 14.0 0.00 0.00 0.00 73 1009.2
20260509203035 86 87 7.0 16.0 0.00 0.00 0.00 71 1009.2
20260509201528 87 91 4.0 14.0 0.00 0.00 0.00 69 1009.1
20260509200030 87 98 5.0 13.0 0.00 0.00 0.00 68 1009.3
20260509194742 87 85 6.0 13.0 0.00 0.00 0.00 69 1009.1
20260509183029 86 101 6.0 15.0 0.00 0.00 0.00 71 1009.2
20260509181527 85 21 7.0 15.0 0.00 0.00 0.00 71 1009.2
20260509180044 84 93 9.0 16.0 0.00 0.00 0.00 73 1008.7